Change the Weather History Date:

Monday, October 29, 2012

  Actual Average (KLRD) Record (KLRD)
Temperature  
Mean Temperature 61 °F 72 °F  
Max Temperature 75 °F 83 °F 97 °F (1902)
Min Temperature 47 °F 62 °F 32 °F (1908)
Degree Days  
Heating Degree Days 4 1  
Month to date heating degree days 6  
Since 1 July heating degree days 7  
Cooling Degree Days 0 8  
Month to date cooling degree days 329  
Year to date cooling degree days 4114  
Growing Degree Days 11 (Base 50)    
Moisture  
Dew Point 35 °F    
Average Humidity 43    
Maximum Humidity 71    
Minimum Humidity 22    
Precipitation  
Precipitation 0.00 in 0.05 in 2.00 in (1975)
Month to date precipitation 2.12  
Year to date precipitation 18.04  
Sea Level Pressure  
Sea Level Pressure 30.20 in    
Wind  
Wind Speed 3 mph (ENE)    
Max Wind Speed 8 mph    
Max Gust Speed -    
Visibility 10 miles    
Events      
T = Trace of Precipitation, MM = Missing Value Source: NWS Daily Summary

Daily Weather History Graph

Daily Weather History Graph

Search for Another Location

Airport or City:

Trip Planner

Search our weather history database for the weather conditions in past years. The results will help you decide how hot, cold, wet, or windy it might be!

Date:

Astronomy

Oct. 29, 2012 Rise Set
Actual Time 7:43 AM CDT 6:53 PM CDT
Civil Twilight 7:19 AM CDT 7:17 PM CDT
Nautical Twilight 6:52 AM CDT 7:44 PM CDT
Astronomical Twilight 6:24 AM CDT 8:11 PM CDT
Moon 6:50 PM CDT (10/29) 7:33 AM CDT (10/29)
Length of Visible Light 11h 57m
Length of Day
11h 09m
Full, 100% of the Moon is Illuminated
Oct 29
Full
Oct 29
Full
Nov 6
Last Quarter
Nov 13
New
Nov 20
First Quarter

Hourly Weather History & Observations

Time (CDT) Temp. Dew Point Humidity Pressure Visibility Wind Dir Wind Speed Gust Speed Precip Events Conditions
12:15 AM 54.3 °F 31.5 °F 42% 30.21 in 10.0 mi Calm Calm - N/A   Clear
12:35 AM 53.8 °F 31.6 °F 43% 30.21 in 10.0 mi SSW 4.6 mph - N/A   Clear
12:55 AM 51.3 °F 32.2 °F 48% 30.21 in 10.0 mi SSW 3.5 mph - N/A   Clear
1:15 AM 51.1 °F 32.2 °F 48% 30.21 in 10.0 mi Calm Calm - N/A   Clear
1:35 AM 51.4 °F 32.2 °F 48% 30.21 in 10.0 mi Calm Calm - N/A   Clear
1:55 AM 51.4 °F 34.0 °F 51% 30.21 in 10.0 mi Calm Calm - N/A   Clear
2:15 AM 50.2 °F 36.5 °F 59% 30.21 in 10.0 mi Calm Calm - N/A   Clear
2:35 AM 48.2 °F 35.4 °F 61% 30.21 in 10.0 mi Calm Calm - N/A   Clear
2:55 AM 48.0 °F 35.2 °F 61% 30.20 in 10.0 mi Calm Calm - N/A   Clear
3:15 AM 48.4 °F 35.2 °F 60% 30.20 in 10.0 mi NNW 3.5 mph - N/A   Clear
3:35 AM 47.8 °F 34.7 °F 60% 30.20 in 10.0 mi NNW 3.5 mph - N/A   Clear
3:55 AM 47.3 °F 34.9 °F 62% 30.19 in 10.0 mi NNW 4.6 mph - N/A   Clear
4:15 AM 47.7 °F 34.9 °F 61% 30.19 in 10.0 mi North 4.6 mph - N/A   Clear
4:35 AM 47.8 °F 35.2 °F 62% 30.19 in 10.0 mi NNW 4.6 mph - N/A   Clear
4:55 AM 47.3 °F 35.2 °F 63% 30.19 in 10.0 mi NNW 3.5 mph - N/A   Clear
5:15 AM 47.3 °F 35.8 °F 64% 30.20 in 10.0 mi NNW 4.6 mph - N/A   Clear
5:55 AM 48.0 °F 36.5 °F 64% 30.21 in 10.0 mi NNW 4.6 mph - N/A   Clear
6:15 AM 47.8 °F 36.3 °F 64% 30.21 in 10.0 mi North 3.5 mph - N/A   Clear
6:35 AM 48.4 °F 36.5 °F 64% 30.21 in 10.0 mi North 3.5 mph - N/A   Clear
6:55 AM 48.4 °F 36.5 °F 64% 30.22 in 10.0 mi North 4.6 mph - N/A   Clear
7:15 AM 47.8 °F 36.5 °F 65% 30.23 in 10.0 mi NNE 5.8 mph - N/A   Clear
7:35 AM 47.8 °F 36.7 °F 65% 30.23 in 10.0 mi NNE 4.6 mph - N/A   Clear
7:55 AM 47.8 °F 37.2 °F 67% 30.23 in 10.0 mi NNE 4.6 mph - N/A   Clear
8:15 AM 48.2 °F 37.6 °F 67% 30.24 in 10.0 mi NE 3.5 mph - N/A   Clear
8:55 AM 52.9 °F 36.3 °F 53% 30.26 in 10.0 mi NE 6.9 mph - N/A   Clear
9:15 AM 55.6 °F 34.0 °F 44% 30.27 in 10.0 mi ENE 5.8 mph - N/A   Clear
9:35 AM 58.3 °F 32.0 °F 37% 30.27 in 10.0 mi ENE 6.9 mph - N/A   Clear
9:55 AM 60.1 °F 31.3 °F 34% 30.28 in 10.0 mi ENE 5.8 mph - N/A   Clear
10:15 AM 61.9 °F 30.2 °F 30% 30.27 in 10.0 mi East 6.9 mph - N/A   Clear
10:35 AM 63.5 °F 30.2 °F 29% 30.27 in 10.0 mi ENE 6.9 mph - N/A   Clear
11:15 AM 66.4 °F 32.2 °F 28% 30.27 in 10.0 mi East 8.1 mph - N/A   Clear
11:35 AM 67.3 °F 33.1 °F 28% 30.27 in 10.0 mi East 4.6 mph - N/A   Clear
11:55 AM 68.2 °F 34.3 °F 29% 30.27 in 10.0 mi ESE 4.6 mph - N/A   Clear
12:15 PM 68.9 °F 34.5 °F 28% 30.26 in 10.0 mi East 3.5 mph - N/A   Clear
12:35 PM 69.6 °F 34.3 °F 27% 30.25 in 10.0 mi ENE 3.5 mph - N/A   Clear
12:55 PM 69.8 °F 33.6 °F 26% 30.24 in 10.0 mi Calm Calm - N/A   Clear
1:15 PM 70.9 °F 33.6 °F 25% 30.22 in 10.0 mi East 3.5 mph - N/A   Clear
1:35 PM 72.0 °F 34.0 °F 25% 30.21 in 10.0 mi Calm Calm - N/A   Clear
1:55 PM 72.5 °F 33.8 °F 24% 30.20 in 10.0 mi Calm Calm - N/A   Clear
2:15 PM 73.4 °F 33.6 °F 23% 30.19 in 10.0 mi Calm Calm - N/A   Clear
2:35 PM 73.4 °F 33.4 °F 23% 30.18 in 10.0 mi NNW 4.6 mph - N/A   Clear
2:55 PM 73.0 °F 33.4 °F 23% 30.16 in 10.0 mi Calm Calm - N/A   Clear
3:15 PM 73.8 °F 33.6 °F 23% 30.16 in 10.0 mi ESE 5.8 mph - N/A   Clear
3:35 PM 74.5 °F 33.4 °F 22% 30.15 in 10.0 mi Calm Calm - N/A   Clear
3:55 PM 74.8 °F 33.4 °F 22% 30.14 in 10.0 mi NE 5.8 mph - N/A   Clear
4:15 PM 75.2 °F 33.4 °F 22% 30.14 in 10.0 mi East 6.9 mph - N/A   Clear
4:55 PM 75.4 °F 33.8 °F 22% 30.13 in 10.0 mi Calm Calm - N/A   Clear
5:15 PM 75.4 °F 34.3 °F 22% 30.12 in 10.0 mi East 4.6 mph - N/A   Clear
5:35 PM 75.2 °F 33.8 °F 22% 30.12 in 10.0 mi ENE 4.6 mph - N/A   Clear
5:55 PM 75.0 °F 33.4 °F 22% 30.12 in 10.0 mi East 4.6 mph - N/A   Clear
6:15 PM 74.5 °F 32.9 °F 22% 30.12 in 10.0 mi East 6.9 mph - N/A   Clear
6:35 PM 73.8 °F 32.9 °F 22% 30.12 in 10.0 mi East 5.8 mph - N/A   Clear
6:55 PM 72.1 °F 33.1 °F 24% 30.12 in 10.0 mi East 5.8 mph - N/A   Clear
7:15 PM 69.8 °F 32.7 °F 25% 30.12 in 10.0 mi East 5.8 mph - N/A   Clear
7:35 PM 67.8 °F 32.5 °F 27% 30.13 in 10.0 mi East 5.8 mph - N/A   Clear
10:35 PM 60.6 °F 48.2 °F 64% 30.16 in 10.0 mi ESE 5.8 mph - N/A   Clear
10:55 PM 60.1 °F 48.4 °F 65% 30.16 in 10.0 mi East 4.6 mph - N/A   Clear
11:15 PM 59.2 °F 48.4 °F 67% 30.16 in 10.0 mi East 4.6 mph - N/A   Clear
11:35 PM 57.9 °F 48.0 °F 70% 30.16 in 10.0 mi East 4.6 mph - N/A   Clear
11:55 PM 57.6 °F 48.4 °F 71% 30.15 in 10.0 mi East 5.8 mph - N/A   Clear